Location: Rotheul
(50.2849°N, 11.2349°E)
Time: 01:27:07
(UTC+02:00)

ISS - Pass Details

Date: 13 July 2018
Orbit: 402 x 408 km, 51.6° (Epoch: 22 July)

Event Time Altitude Azimuth Distance (km) Brightness Sun altitude
Exits shadow 03:30:34 11° 261° (W) 1,398 -1.5 -12.4°
Maximum altitude 03:33:41 80° 349° (N) 419 -3.7 -12.1°
Drops below altitude 10° 03:37:00 10° 76° (ENE) 1,474 -0.3 -11.8°
Sets 03:39:05 0° 78° (ENE) 2,337 0.8 -11.7°
